KB1YYC Weather Reports


Display with metric or nautical units.
time (UTC)temp
F
wind
direction
speed
MPH
gust
MPH
rain 1hr
in
rain 24hr
in
rain mn
in
humidity
%
barometer
mb
20260504224717 69 306 1.0 1.0 0.00 0.00 0.00 35 1005.4
20260504224214 69 297 0.0 2.0 0.00 0.00 0.00 35 1005.5
20260504223711 69 289 1.0 1.0 0.00 0.00 0.00 35 1005.6
20260504223206 69 275 0.0 1.0 0.00 0.00 0.00 36 1005.5
20260504222703 69 282 1.0 6.0 0.00 0.00 0.00 34 1005.6
20260504222200 69 262 0.0 2.0 0.00 0.00 0.00 35 1005.5
20260504221658 69 308 3.0 3.0 0.00 0.00 0.00 34 1005.5
20260504221155 69 278 1.0 7.0 0.00 0.00 0.00 33 1005.5
20260504220651 70 308 2.0 7.0 0.00 0.00 0.00 33 1005.5
20260504220149 70 271 1.0 3.0 0.00 0.00 0.00 33 1005.4
20260504215645 70 252 1.0 3.0 0.00 0.00 0.00 33 1005.6
20260504215142 69 309 5.0 7.0 0.00 0.00 0.00 33 1005.5
20260504214638 70 326 2.0 6.0 0.00 0.00 0.00 33 1005.4
20260504214134 70 252 2.0 5.0 0.00 0.00 0.00 33 1005.5
20260504213631 69 298 3.0 8.0 0.00 0.00 0.00 33 1005.5
20260504213128 69 279 2.0 6.0 0.00 0.00 0.00 32 1005.4
20260504212624 70 314 3.0 7.0 0.00 0.00 0.00 32 1005.4
20260504212121 70 299 3.0 5.0 0.00 0.00 0.00 33 1005.6
20260504211619 71 301 3.0 10.0 0.00 0.00 0.00 32 1005.3
20260504211115 71 333 5.0 7.0 0.00 0.00 0.00 32 1005.4
20260504210613 71 324 2.0 6.0 0.00 0.00 0.00 33 1005.2
20260504210109 70 267 4.0 6.0 0.00 0.00 0.00 31 1005.1
20260504205607 70 274 3.0 5.0 0.00 0.00 0.00 32 1005.3
20260504205104 70 285 1.0 3.0 0.00 0.00 0.00 33 1005.3
20260504204602 70 288 3.0 6.0 0.00 0.00 0.00 32 1005.3
20260504204101 70 306 3.0 6.0 0.00 0.00 0.00 33 1005.3
20260504203559 69 282 2.0 8.0 0.00 0.00 0.00 33 1005.3
20260504203056 69 278 1.0 6.0 0.00 0.00 0.00 34 1005.1
20260504202551 70 25 3.0 8.0 0.00 0.00 0.00 33 1005.1
20260504202048 71 296 1.0 3.0 0.00 0.00 0.00 33 1005.4
20260504201545 70 277 1.0 6.0 0.00 0.00 0.00 34 1005.5
20260504201043 69 321 4.0 6.0 0.00 0.00 0.00 35 1005.6
20260504200539 69 248 2.0 3.0 0.00 0.00 0.00 34 1005.6
20260504200036 69 284 4.0 8.0 0.00 0.00 0.00 34 1005.6
20260504195532 69 278 2.0 7.0 0.00 0.00 0.00 34 1005.3
20260504195029 69 275 5.0 7.0 0.00 0.00 0.00 34 1005.4
20260504194526 70 311 2.0 8.0 0.00 0.00 0.00 34 1005.3
20260504194021 70 319 6.0 9.0 0.00 0.00 0.00 34 1005.4
20260504193518 70 291 2.0 6.0 0.00 0.00 0.00 35 1005.5
20260504193017 70 307 1.0 6.0 0.00 0.00 0.00 35 1005.5
20260504192515 70 277 2.0 3.0 0.00 0.00 0.00 35 1005.5
20260504192013 70 300 4.0 6.0 0.00 0.00 0.00 35 1005.5
20260504191510 69 286 1.0 9.0 0.00 0.00 0.00 36 1005.5
20260504191006 69 312 5.0 6.0 0.00 0.00 0.00 37 1005.6
20260504190502 69 301 1.0 11.0 0.00 0.00 0.00 37 1005.6
20260504185958 69 268 1.0 5.0 0.00 0.00 0.00 36 1005.5
20260504185455 68 285 4.0 8.0 0.00 0.00 0.00 37 1005.6
20260504184952 67 325 4.0 6.0 0.00 0.00 0.00 37 1005.7
20260504184447 65 290 1.0 2.0 0.00 0.00 0.00 40 1005.8
20260504183943 65 326 3.0 3.0 0.00 0.00 0.00 39 1006.0
20260504183441 65 199 3.0 8.0 0.00 0.00 0.00 39 1006.1
20260504182939 66 336 1.0 3.0 0.00 0.00 0.00 39 1006.0
20260504182435 66 295 3.0 8.0 0.00 0.00 0.00 38 1006.0
20260504181933 66 359 3.0 5.0 0.00 0.00 0.00 39 1005.8
20260504181429 66 308 3.0 8.0 0.00 0.00 0.00 37 1005.7
20260504180928 66 300 3.0 6.0 0.00 0.00 0.00 37 1005.7
20260504180427 66 305 2.0 5.0 0.00 0.00 0.00 36 1005.7
20260504175924 67 276 2.0 5.0 0.00 0.00 0.00 35 1005.7
20260504175421 67 329 5.0 11.0 0.00 0.00 0.00 35 1005.9
20260504174919 66 254 3.0 6.0 0.00 0.00 0.00 36 1005.8
20260504174416 66 323 2.0 6.0 0.00 0.00 0.00 36 1006.0
20260504173913 66 350 5.0 5.0 0.00 0.00 0.00 35 1005.9
20260504173409 67 2 5.0 7.0 0.00 0.00 0.00 35 1005.9
20260504172907 67 317 4.0 6.0 0.00 0.00 0.00 35 1005.9
20260504172403 67 355 3.0 7.0 0.00 0.00 0.00 34 1005.8
20260504171900 68 252 3.0 10.0 0.00 0.00 0.00 34 1005.9
20260504171357 66 307 1.0 5.0 0.00 0.00 0.00 35 1005.6
20260504170854 66 340 3.0 6.0 0.00 0.00 0.00 34 1005.8
20260504170350 67 325 3.0 8.0 0.00 0.00 0.00 34 1005.7
20260504160309 68 292 1.0 2.0 0.00 0.00 0.00 36 1005.7
20260504150734 64 117 3.0 6.0 0.00 0.00 0.00 43 1006.7
20260504150231 62 267 1.0 5.0 0.00 0.00 0.00 49 1006.8
20260504141200 60 211 2.0 3.0 0.00 0.00 0.00 46 1007.3
20260504140657 60 235 2.0 3.0 0.00 0.00 0.00 46 1007.4
20260504140152 59 267 1.0 2.0 0.00 0.00 0.00 48 1007.4
20260504130621 57 299 2.0 5.0 0.00 0.00 0.00 54 1008.2
20260504130118 57 302 3.0 3.0 0.00 0.00 0.00 55 1008.3
20260504110509 42 279 0.0 1.0 0.00 0.00 0.00 79 1009.1
20260504100431 37 284 0.0 0.0 0.00 0.00 0.00 84 1009.1
20260504081824 34 270 0.0 0.0 0.00 0.00 0.00 88 1008.9
20260504081321 34 270 0.0 0.0 0.00 0.00 0.00 88 1008.8
20260504080816 34 270 0.0 0.0 0.00 0.00 0.00 89 1008.9
20260504080314 34 273 0.0 0.0 0.00 0.00 0.00 89 1009.1
20260504070241 34 270 0.0 0.0 0.00 0.00 0.00 84 1009.0
20260504060201 33 273 0.0 0.0 0.00 0.00 0.00 89 1008.7
20260504050629 33 272 0.0 0.0 0.00 0.00 0.00 87 1008.8
20260504050127 33 270 0.0 0.0 0.00 0.00 0.00 88 1008.6
20260504045624 33 271 0.0 0.0 0.00 0.00 0.00 90 1008.9
20260504045118 32 283 0.0 0.0 0.00 0.00 0.00 91 1008.8
20260504044616 32 269 0.0 0.0 0.00 0.00 0.00 92 1008.6
20260504044113 32 280 0.0 0.0 0.00 0.00 0.00 92 1008.9
20260504043610 32 269 0.0 0.0 0.00 0.00 0.00 92 1008.8
20260504043107 33 274 0.0 0.0 0.00 0.00 0.00 91 1008.8
20260504042604 33 268 0.0 0.0 0.00 0.00 0.00 91 1008.7
20260504042101 33 269 0.0 0.0 0.00 0.00 0.00 91 1008.6
20260504041557 33 272 0.0 0.0 0.00 0.00 0.00 90 1008.6
20260504041053 33 269 0.0 0.0 0.00 0.00 0.00 90 1008.6
20260504040551 33 270 0.0 0.0 0.00 0.00 0.00 89 1008.6
20260504040047 33 270 0.0 0.0 0.00 0.00 0.00 88 1008.6
20260504035544 33 269 0.0 0.0 0.00 0.00 0.00 87 1008.5
20260504035040 34 269 0.0 0.0 0.00 0.00 0.00 87 1008.5
20260504034539 34 268 0.0 0.0 0.00 0.00 0.00 86 1008.5
20260504034035 35 273 0.0 0.0 0.00 0.00 0.00 86 1008.4
20260504033533 35 273 0.0 0.0 0.00 0.00 0.00 85 1008.4
20260504033030 35 276 0.0 0.0 0.00 0.00 0.00 86 1008.3
20260504032527 35 270 0.0 0.0 0.00 0.00 0.00 83 1008.4
20260504032024 35 274 0.0 0.0 0.00 0.00 0.00 83 1008.3
20260504031521 35 274 0.0 0.0 0.00 0.00 0.00 83 1008.3
20260504031017 35 270 0.0 0.0 0.00 0.00 0.00 84 1008.2
20260504030515 35 269 0.0 0.0 0.00 0.00 0.00 84 1008.2
20260504030010 35 268 0.0 0.0 0.00 0.00 0.00 85 1008.5
20260504025508 35 276 0.0 1.0 0.00 0.00 0.00 84 1008.4
20260504025005 36 278 0.0 0.0 0.00 0.00 0.00 84 1008.3
20260504024502 36 276 0.0 0.0 0.00 0.00 0.00 83 1008.3
20260504023959 36 272 0.0 0.0 0.00 0.00 0.00 82 1008.3
20260504023455 36 274 0.0 0.0 0.00 0.00 0.00 82 1008.2
20260504022950 37 273 0.0 0.0 0.00 0.00 0.00 82 1008.3
20260504022447 37 272 0.0 0.0 0.00 0.00 0.00 80 1008.2
20260504021944 37 277 0.0 0.0 0.00 0.00 0.00 79 1008.3
20260504021441 37 277 0.0 0.0 0.00 0.00 0.00 79 1008.3
20260504020938 37 270 0.0 0.0 0.00 0.00 0.00 80 1008.3
20260504020434 37 272 0.0 0.0 0.00 0.00 0.00 79 1008.3
20260504015931 37 273 0.0 0.0 0.00 0.00 0.00 79 1008.3
20260504015427 37 272 0.0 0.0 0.00 0.00 0.00 79 1008.4
20260504014923 38 269 0.0 0.0 0.00 0.00 0.00 80 1008.1
20260504014420 38 272 0.0 0.0 0.00 0.00 0.00 78 1008.2
20260504013916 38 268 0.0 0.0 0.00 0.00 0.00 78 1008.3
20260504013415 38 268 0.0 0.0 0.00 0.00 0.00 76 1008.1
20260504012911 39 267 0.0 0.0 0.00 0.00 0.00 77 1008.1
20260504012409 39 266 0.0 0.0 0.00 0.00 0.00 76 1008.0
20260504011906 39 266 0.0 0.0 0.00 0.00 0.00 75 1008.0
20260504011403 39 266 0.0 0.0 0.00 0.00 0.00 75 1008.1
20260504010859 39 269 0.0 0.0 0.00 0.00 0.00 74 1007.9
20260504010355 39 266 0.0 1.0 0.00 0.00 0.00 74 1007.9
20260504005851 40 272 0.0 1.0 0.00 0.00 0.00 73 1007.9
20260504005348 39 276 0.0 0.0 0.00 0.00 0.00 74 1007.9
20260504004845 40 274 0.0 1.0 0.00 0.00 0.00 73 1007.6
20260504004343 40 273 0.0 0.0 0.00 0.00 0.00 73 1007.7
20260504003839 41 268 0.0 0.0 0.00 0.00 0.00 72 1007.7
20260504003336 42 270 0.0 0.0 0.00 0.00 0.00 68 1007.6
20260504002833 42 274 0.0 0.0 0.00 0.00 0.00 66 1007.5
20260504002330 43 274 0.0 0.0 0.00 0.00 0.00 63 1007.5
20260504001828 44 285 0.0 1.0 0.00 0.00 0.00 59 1007.4
20260504001325 45 286 1.0 1.0 0.00 0.00 0.00 56 1007.2
20260504000821 45 288 1.0 2.0 0.00 0.00 0.00 54 1007.3
20260504000318 46 280 1.0 2.0 0.00 0.00 0.00 53 1007.1
20260503235816 46 297 0.0 2.0 0.00 0.00 0.00 52 1007.1
20260503235314 46 283 1.0 3.0 0.00 0.00 0.00 52 1007.0
20260503234811 46 279 0.0 1.0 0.00 0.00 0.00 52 1007.0
20260503234309 47 213 2.0 6.0 0.00 0.00 0.00 50 1006.9
20260503233806 46 359 2.0 3.0 0.00 0.00 0.00 51 1006.5
20260503233301 47 285 0.0 3.0 0.00 0.00 0.00 51 1006.7
20260503232759 47 303 1.0 6.0 0.00 0.00 0.00 50 1006.7
20260503232256 47 285 0.0 5.0 0.00 0.00 0.00 49 1006.5
20260503231754 47 338 1.0 2.0 0.00 0.00 0.00 51 1006.4
20260503231251 48 314 2.0 2.0 0.00 0.00 0.00 50 1006.4
20260503230746 48 288 0.0 2.0 0.00 0.00 0.00 48 1006.4
20260503230244 48 258 1.0 1.0 0.00 0.00 0.00 48 1006.2
20260503225741 49 288 4.0 5.0 0.00 0.00 0.00 47 1006.2
20260503225241 49 287 2.0 6.0 0.00 0.00 0.00 47 1006.0